IRIDIUM 129

Last updated on Tue Sep 22 2026 00:03:21 GMT+0000 (Coordinated Universal Time)

1 42958U 17061D 26264.50873590 .00000024 00000+0 13841-5 0 9997 2 42958 86.4026 345.0079 0002408 97.2303 262.9167 14.34217683468608
UTC large
Height (km)
Speed (km/s)
/
Latitude / Longitude
Inclination (degrees)
Orbital Period (minutes)
Azimuth
Elevation
Range (km)
Doppler Factor

Next 0 passes for location: London (51.5072 / 0.1276)

No passes found over London.
IRIDIUM 129